Temp
3 3 3 2 2 1 1 1 1 0 0 -0 -1 -2 -1 -2 -1 -1 -1 -2 -2 -3 -4 -4 -4 -4 -5 -5 -5 -5 -6 -6 -6 -6 -6 -6 -7 -7 -7 -7 -7 -7 -6
3 3 2 2 2 1 1 1 1 1 -0 -1 -1 -1 -2 -2 -2 -2 -2 -2 -2 -3 -4 -4 -5 -5 -5 -5 -6 -6 -6 -6 -6 -7 -7 -7 -7 -7 -7 -7 -7 -7 -7
3 2 2 2 2 1 1 0 0 0 -0 -0 -0 -2 -1 -1 -4 -3 -3 -3 -3 -3 -4 -4 -5 -5 -5 -5 -6 -6 -6 -7 -7 -7 -7 -7 -8 -8 -8 -8 -8 -8 -7
3 3 3 2 2 1 0 0 -0 -0 -1 -1 -1 -1 -2 -2 -4 -4 -3 -3 -3 -4 -4 -5 -5 -6 -6 -6 -6 -7 -7 -7 -7 -8 -8 -8 -8 -8 -8 -8 -8 -8 -8
4 3 3 3 2 1 1 1 -1 -0 -1 -1 -1 -2 -2 -3 -4 -4 -3 -4 -4 -4 -5 -5 -6 -6 -6 -6 -7 -7 -7 -7 -8 -8 -8 -8 -9 -9 -9 -8 -8 -8 -8
3 3 3 3 2 1 1 -0 -0 -0 -1 -1 -1 -2 -2 -3 -4 -4 -4 -4 -4 -4 -5 -5 -6 -6 -6 -7 -7 -7 -7 -8 -8 -8 -9 -9 -9 -9 -9 -9 -9 -8 -8
3 3 3 3 2 1 0 0 0 -1 -1 -2 -2 -1 -2 -3 -4 -4 -5 -5 -5 -5 -5 -6 -6 -6 -6 -7 -7 -8 -8 -8 -8 -9 -9 -9 -10 -9 -9 -10 -10 -9 -9
4 3 3 2 2 1 0 -0 -0 -1 -2 -2 -2 -2 -3 -4 -4 -5 -5 -5 -5 -5 -6 -6 -6 -7 -7 -7 -7 -8 -8 -8 -9 -9 -9 -10 -10 -10 -10 -10 -10 -10 -10
3 3 3 2 1 0 0 -0 -1 -1 -1 -1 -2 -2 -3 -4 -4 -5 -5 -5 -6 -6 -6 -6 -7 -7 -7 -7 -7 -8 -9 -9 -9 -10 -10 -10 -11 -11 -11 -11 -11 -11 -11
3 3 2 1 1 0 -0 -0 -1 -1 -1 -2 -2 -2 -3 -4 -4 -4 -5 -5 -6 -6 -7 -7 -7 -7 -8 -8 -8 -8 -9 -9 -9 -10 -10 -11 -11 -12 -12 -12 -12 -12 -12
2 2 1 1 1 0 -0 -1 -1 -2 -2 -2 -3 -3 -4 -4 -4 -4 -5 -5 -6 -6 -6 -7 -7 -8 -8 -7 -8 -8 -9 -9 -10 -10 -11 -12 -12 -12 -13 -13 -13 -13 -13
1 1 0 0 -0 -1 -1 -2 -2 -2 -2 -2 -3 -4 -3 -4 -4 -5 -5 -6 -6 -6 -7 -7 -7 -8 -8 -8 -8 -9 -9 -10 -10 -11 -11 -12 -13 -13 -13 -13 -14 -14 -14
1 1 0 -0 -1 -1 -2 -2 -2 -3 -3 -3 -4 -4 -4 -5 -4 -5 -6 -6 -6 -6 -7 -7 -8 -8 -9 -8 -8 -9 -10 -10 -11 -11 -12 -12 -13 -13 -13 -14 -14 -15 -15
0 0 -1 -1 -1 -2 -3 -3 -3 -3 -4 -4 -5 -4 -5 -5 -6 -7 -7 -7 -7 -7 -7 -7 -8 -8 -9 -9 -9 -10 -11 -11 -11 -12 -12 -13 -14 -14 -14 -15 -15 -16 -16
1 1 0 -0 -1 -1 -2 -3 -3 -3 -3 -4 -5 -5 -6 -6 -7 -7 -7 -8 -8 -8 -8 -8 -8 -9 -10 -10 -10 -10 -11 -12 -12 -13 -13 -14 -14 -15 -15 -16 -16 -17 -17
0 0 -0 -1 -1 -1 -2 -3 -4 -4 -4 -4 -5 -6 -5 -5 -6 -7 -7 -7 -8 -8 -8 -9 -9 -10 -11 -10 -10 -11 -12 -12 -13 -13 -14 -14 -15 -16 -16 -17 -17 -18 -18
0 -0 -0 -0 -1 -2 -3 -4 -5 -5 -6 -6 -6 -7 -6 -7 -7 -7 -7 -7 -8 -8 -9 -10 -10 -10 -11 -10 -11 -12 -12 -13 -13 -14 -14 -15 -16 -16 -17 -17 -18 -19 -19
-0 -0 -0 -1 -2 -3 -4 -5 -5 -5 -6 -6 -7 -7 -7 -7 -7 -8 -8 -8 -8 -9 -9 -10 -10 -10 -11 -11 -12 -12 -13 -13 -14 -14 -15 -16 -17 -17 -17 -18 -19 -19 -20
-1 -1 -2 -3 -4 -5 -5 -5 -5 -6 -6 -7 -7 -7 -7 -7 -7 -7 -8 -8 -9 -9 -10 -10 -10 -11 -11 -12 -12 -12 -13 -14 -14 -15 -16 -17 -17 -18 -18 -19 -20 -21 -21
-1 -2 -3 -4 -5 -5 -5 -5 -5 -6 -6 -7 -7 -7 -7 -8 -8 -8 -8 -9 -9 -10 -10 -10 -11 -11 -12 -12 -13 -13 -14 -14 -15 -16 -16 -17 -18 -18 -19 -20 -21 -21 -22
-3 -4 -5 -5 -5 -5 -5 -5 -5 -6 -6 -7 -7 -7 -8 -8 -8 -8 -9 -9 -10 -10 -10 -11 -11 -12 -12 -13 -13 -14 -14 -15 -16 -16 -17 -18 -19 -20 -21 -21 -22 -22 -22
-5 -6 -6 -5 -5 -5 -5 -5 -6 -6 -7 -7 -7 -7 -8 -8 -8 -9 -9 -10 -10 -11 -11 -11 -12 -13 -13 -14 -14 -15 -15 -16 -16 -17 -18 -18 -19 -20 -21 -22 -22 -23 -23
-6 -6 -6 -6 -5 -5 -5 -6 -7 -7 -7 -8 -8 -8 -8 -8 -9 -9 -10 -10 -11 -11 -12 -12 -13 -13 -14 -14 -15 -15 -16 -16 -17 -18 -18 -19 -20 -21 -22 -22 -23 -23 -24
-7 -7 -6 -6 -6 -6 -6 -7 -7 -7 -8 -8 -8 -8 -9 -9 -10 -10 -11 -11 -11 -12 -12 -13 -13 -14 -14 -15 -15 -16 -16 -17 -18 -19 -19 -20 -21 -22 -22 -23 -23 -24 -24
-7 -7 -7 -7 -6 -6 -7 -8 -8 -8 -8 -9 -9 -9 -10 -10 -11 -11 -11 -11 -12 -12 -13 -13 -14 -14 -15 -15 -16 -17 -17 -18 -19 -20 -20 -21 -22 -22 -23 -23 -24 -24 -24
-7 -7 -7 -7 -7 -7 -8 -8 -9 -9 -9 -10 -10 -11 -11 -11 -11 -11 -12 -12 -12 -13 -13 -14 -15 -15 -16 -16 -17 -17 -18 -19 -19 -20 -21 -21 -22 -23 -23 -24 -24 -25 -25
Height
3142 3145 3147 3149 3150 3150 3149 3149 3147 3146 3145 3143 3141 3138 3137 3134 3133 3130 3127 3124 3121 3120 3117 3114 3112 3109 3107 3105 3103 3101 3098 3096 3095 3092 3089 3086 3082 3081 3078 3075 3073 3072 3070
3136 3138 3141 3142 3143 3143 3144 3141 3140 3138 3137 3136 3134 3132 3130 3128 3125 3124 3121 3120 3116 3114 3112 3110 3108 3104 3101 3099 3096 3094 3092 3090 3088 3086 3083 3080 3077 3074 3071 3069 3066 3064 3063
3130 3132 3134 3136 3136 3137 3136 3136 3135 3131 3131 3128 3125 3123 3123 3119 3119 3118 3115 3113 3111 3108 3106 3104 3103 3100 3097 3093 3090 3087 3086 3083 3081 3079 3077 3074 3072 3069 3067 3064 3061 3058 3055
3124 3127 3128 3130 3130 3130 3130 3130 3129 3126 3125 3122 3120 3115 3115 3113 3111 3111 3108 3107 3105 3103 3100 3098 3095 3093 3091 3088 3084 3082 3079 3077 3074 3072 3070 3068 3065 3062 3059 3057 3057 3053 3050
3119 3120 3121 3123 3123 3122 3122 3121 3121 3119 3117 3114 3110 3110 3107 3105 3103 3103 3101 3099 3097 3095 3093 3091 3089 3087 3084 3081 3078 3075 3073 3071 3068 3065 3062 3060 3058 3055 3052 3049 3048 3046 3045
3113 3113 3114 3113 3114 3114 3111 3112 3111 3110 3107 3105 3104 3101 3099 3098 3098 3096 3094 3091 3089 3087 3085 3084 3081 3079 3077 3074 3071 3068 3066 3064 3061 3058 3055 3052 3050 3047 3044 3041 3039 3038 3038
3102 3103 3104 3105 3105 3103 3103 3104 3103 3101 3099 3097 3096 3093 3091 3087 3088 3087 3084 3083 3081 3079 3077 3075 3073 3071 3069 3066 3064 3060 3057 3056 3053 3051 3048 3044 3042 3038 3035 3033 3031 3029 3028
3093 3093 3094 3096 3097 3096 3096 3095 3094 3091 3090 3090 3089 3086 3083 3079 3077 3077 3076 3074 3072 3070 3069 3066 3064 3063 3060 3057 3056 3052 3049 3047 3044 3042 3040 3036 3033 3030 3026 3023 3020 3019 3018
3085 3085 3085 3086 3088 3088 3088 3087 3085 3084 3082 3081 3079 3077 3074 3071 3068 3065 3063 3062 3062 3060 3058 3057 3057 3055 3052 3050 3047 3044 3041 3038 3036 3033 3031 3029 3025 3021 3017 3013 3008 3006 3006
3077 3077 3076 3076 3077 3078 3079 3079 3078 3076 3074 3072 3069 3067 3063 3062 3057 3052 3048 3048 3049 3049 3048 3047 3047 3045 3043 3041 3038 3036 3033 3030 3028 3025 3022 3019 3015 3012 3008 3003 2999 2995 2991
3070 3071 3071 3070 3070 3070 3070 3070 3069 3067 3066 3064 3060 3057 3053 3050 3043 3039 3038 3039 3040 3039 3038 3038 3036 3035 3034 3032 3029 3027 3024 3022 3019 3016 3013 3010 3007 3003 3000 2995 2989 2983 2980
3063 3063 3064 3064 3063 3063 3062 3061 3059 3058 3056 3054 3050 3047 3042 3039 3035 3032 3030 3030 3030 3030 3028 3027 3025 3023 3023 3022 3018 3016 3014 3012 3010 3007 3004 3001 2999 2995 2991 2987 2981 2976 2972
3056 3057 3057 3057 3056 3054 3054 3052 3050 3047 3045 3043 3039 3036 3033 3028 3027 3024 3022 3022 3019 3020 3018 3016 3014 3012 3011 3010 3007 3005 3003 3002 3000 2998 2995 2992 2989 2987 2982 2977 2973 2966 2964
3049 3049 3050 3051 3050 3048 3045 3042 3039 3037 3034 3032 3029 3025 3020 3017 3014 3012 3013 3012 3010 3009 3007 3005 3003 3001 2999 2998 2996 2994 2993 2991 2990 2987 2985 2982 2979 2976 2973 2966 2963 2957 2953
3044 3041 3040 3038 3038 3036 3036 3032 3027 3025 3022 3020 3015 3014 3011 3006 3005 3000 3001 3002 3000 2999 2995 2993 2992 2989 2988 2987 2985 2983 2982 2981 2979 2976 2974 2970 2967 2964 2960 2954 2948 2943 2938
3035 3032 3031 3029 3027 3025 3020 3020 3016 3014 3010 3007 3004 3001 2997 2994 2992 2988 2991 2990 2988 2987 2984 2983 2981 2979 2978 2977 2976 2974 2972 2970 2968 2965 2962 2958 2955 2952 2947 2943 2937 2932 2925
3026 3023 3021 3017 3014 3012 3007 3006 3002 2999 2998 2996 2993 2989 2987 2986 2983 2983 2980 2977 2978 2976 2975 2973 2972 2970 2969 2968 2966 2965 2963 2960 2957 2954 2951 2948 2944 2940 2935 2930 2925 2919 2913
3018 3014 3010 3006 3001 3000 2996 2994 2991 2987 2985 2984 2982 2980 2977 2976 2974 2971 2971 2969 2967 2967 2966 2964 2963 2961 2961 2959 2958 2956 2954 2951 2947 2944 2941 2938 2933 2928 2924 2918 2913 2906 2899
3008 3004 2999 2995 2992 2989 2987 2984 2979 2976 2974 2973 2972 2970 2968 2965 2964 2960 2959 2959 2958 2958 2956 2955 2954 2953 2952 2950 2949 2947 2944 2941 2938 2934 2931 2927 2922 2916 2911 2906 2899 2893 2887
2999 2993 2989 2986 2983 2979 2977 2972 2968 2965 2964 2963 2962 2961 2959 2957 2955 2954 2952 2951 2950 2948 2947 2947 2946 2945 2943 2942 2939 2937 2934 2931 2928 2924 2921 2916 2911 2905 2899 2893 2887 2880 2875
2989 2985 2982 2979 2974 2971 2966 2962 2958 2955 2953 2952 2952 2951 2949 2948 2947 2945 2943 2942 2940 2939 2939 2939 2937 2936 2934 2932 2929 2927 2924 2921 2917 2913 2909 2905 2899 2893 2887 2881 2875 2870 2864
2980 2977 2974 2969 2966 2961 2956 2953 2949 2946 2943 2943 2942 2942 2940 2939 2937 2936 2934 2933 2933 2933 2932 2931 2930 2927 2925 2922 2919 2917 2914 2911 2907 2902 2897 2892 2886 2881 2875 2870 2865 2859 2854
2973 2970 2966 2962 2957 2952 2948 2944 2941 2938 2936 2934 2934 2933 2932 2930 2928 2927 2926 2927 2927 2926 2925 2923 2921 2918 2915 2913 2910 2907 2904 2900 2895 2890 2884 2879 2874 2869 2864 2859 2853 2849 2844
2967 2963 2959 2955 2950 2945 2941 2937 2934 2932 2930 2928 2926 2924 2923 2922 2921 2922 2922 2921 2920 2919 2917 2915 2913 2910 2907 2904 2901 2897 2892 2888 2882 2877 2872 2867 2862 2857 2853 2848 2843 2839 2834
2960 2957 2953 2948 2944 2939 2935 2931 2928 2925 2923 2922 2920 2919 2918 2918 2918 2917 2916 2915 2914 2912 2910 2908 2905 2902 2899 2895 2891 2887 2882 2877 2871 2866 2861 2856 2852 2847 2842 2837 2833 2829 2824
2954 2951 2947 2943 2939 2935 2930 2927 2924 2921 2919 2918 2917 2916 2915 2914 2914 2913 2911 2910 2908 2906 2903 2900 2897 2894 2890 2886 2882 2876 2871 2866 2861 2856 2851 2846 2841 2837 2832 2828 2824 2820 2815
Wind_Speed
23 20 20 21 22 23 23 23 25 27 28 30 32 29 25 23 22 23 24 23 22 21 21 22 22 23 24 25 26 26 24 23 21 22 23 25 25 25 26 26 24 23 23
22 21 19 18 19 18 17 20 21 28 28 31 34 33 36 27 20 24 23 25 23 23 22 23 23 23 24 26 27 26 25 24 23 23 24 25 26 27 27 26 26 25 24
15 14 12 10 11 13 15 20 26 26 26 33 31 34 37 32 19 25 24 24 24 23 23 24 24 24 26 26 26 25 26 26 25 24 24 26 26 26 25 26 27 26 26
13 13 15 17 16 19 18 23 26 27 30 29 36 35 37 36 19 24 25 25 26 24 24 24 23 24 27 28 26 26 27 27 27 27 26 26 27 28 27 26 24 25 25
17 17 23 23 22 26 22 23 29 29 29 30 36 44 33 34 19 24 27 27 27 26 25 24 24 25 26 28 27 26 28 28 29 28 29 29 29 28 28 28 26 24 24
26 22 24 27 28 34 23 25 31 29 30 30 32 39 30 28 23 28 30 28 28 27 26 25 25 25 26 27 27 26 28 29 29 29 30 31 31 31 30 29 29 27 25
29 29 33 29 36 43 22 28 31 30 31 29 31 38 35 28 29 32 30 31 29 28 28 28 27 27 27 28 28 26 28 30 30 30 31 32 32 33 33 32 31 30 29
26 30 34 31 30 34 30 32 31 31 29 28 33 35 37 29 34 34 35 34 32 30 29 30 29 29 28 29 30 28 28 30 32 31 32 33 34 35 35 35 35 33 32
27 26 30 32 31 28 29 33 30 30 28 30 33 36 37 37 39 40 42 39 36 34 30 32 32 31 30 30 31 30 30 32 33 32 32 33 35 36 38 38 38 38 36
23 25 27 29 29 28 29 28 29 30 29 31 36 39 41 43 47 49 49 45 36 31 29 28 34 35 31 31 30 32 30 33 34 34 34 35 36 38 39 40 40 40 42
21 23 24 25 24 24 26 26 28 30 33 37 41 44 47 50 56 53 45 42 38 38 34 30 33 35 35 34 32 32 32 34 34 34 35 35 36 38 39 40 41 42 43
17 16 17 18 19 20 22 25 28 33 37 43 44 47 50 47 36 33 35 33 37 38 35 35 34 35 37 37 35 34 33 34 34 35 35 36 37 38 40 40 40 42 43
18 19 20 20 22 22 26 27 32 37 41 42 45 49 50 34 31 26 27 26 28 34 31 33 33 35 38 40 38 35 34 35 36 35 36 36 37 38 40 40 41 43 43
18 18 21 24 27 30 33 34 38 43 39 41 45 48 37 35 29 27 29 30 31 33 36 37 37 37 39 40 38 36 35 36 36 36 37 37 38 39 40 42 42 43 45
15 18 21 23 28 31 36 40 42 40 43 49 37 39 37 38 29 24 26 32 31 34 37 39 40 38 35 37 36 36 36 37 37 37 37 37 38 41 42 43 44 46 49
18 20 23 26 29 33 36 41 42 42 44 40 42 43 38 38 30 30 33 34 35 35 35 38 37 31 30 35 36 35 36 37 37 38 37 38 40 43 43 43 46 48 50
23 27 31 34 34 35 35 36 37 37 37 39 42 43 37 41 33 37 40 40 34 32 35 31 28 28 31 35 34 34 35 37 38 37 38 39 43 44 45 46 47 49 50
30 34 37 37 37 36 35 33 34 35 35 35 34 34 36 38 36 37 32 28 33 33 32 27 28 30 32 33 32 33 34 36 36 37 38 41 43 45 45 47 48 50 49
34 35 35 36 35 34 35 35 34 33 32 31 32 32 31 29 32 33 26 28 33 33 28 29 30 30 32 31 31 33 34 35 36 37 39 41 43 45 46 47 48 48 47
35 36 34 32 31 32 34 34 34 33 33 30 31 33 35 30 30 28 29 28 30 30 28 28 29 30 29 30 31 32 33 34 36 37 39 41 43 45 46 47 46 46 45
34 32 30 28 29 32 34 35 32 32 32 31 32 32 33 29 32 31 31 29 26 26 27 27 27 27 29 30 31 32 33 34 36 38 40 41 42 44 44 45 44 43 42
32 30 30 30 31 34 33 32 31 29 29 30 30 32 35 32 32 32 29 25 23 23 24 26 26 27 29 31 32 33 34 35 37 39 41 42 42 43 42 42 41 40 39
29 28 28 30 30 31 29 29 27 26 26 27 28 30 31 31 29 24 20 20 21 23 23 24 26 28 31 32 32 33 34 36 38 40 41 42 41 40 40 39 39 38 38
26 27 28 30 30 29 27 26 25 24 23 23 23 23 23 20 18 17 18 19 19 21 23 25 28 30 31 31 32 34 37 38 40 41 41 41 40 39 38 37 37 36 36
26 29 31 30 29 28 26 25 24 22 21 20 18 16 14 13 14 15 16 18 21 23 26 28 29 30 30 31 34 36 38 39 40 40 40 39 38 37 36 36 36 35 35
28 29 29 28 27 27 25 24 21 18 16 14 13 12 13 13 14 16 18 21 24 26 27 28 29 29 31 33 36 38 39 39 39 38 37 37 36 35 34 34 34 34 32
Wind_Direction
239 250 257 260 264 267 274 281 283 285 288 288 289 288 303 295 308 313 317 317 319 314 311 311 310 311 311 311 310 309 308 307 308 306 305 306 308 310 311 312 309 306 302
241 250 257 257 261 269 278 276 291 280 281 283 291 286 293 287 298 307 312 314 316 311 309 308 309 309 309 310 308 307 306 307 308 308 307 306 307 309 309 309 308 307 304
219 225 235 252 268 278 285 283 284 282 290 275 276 273 288 279 295 301 309 308 309 307 306 306 309 308 308 308 307 305 305 307 308 307 306 305 304 304 306 307 307 307 305
232 246 258 269 277 272 288 287 294 292 301 292 288 280 285 285 290 296 302 301 302 302 302 304 307 306 307 308 307 305 304 307 308 307 307 305 305 306 307 305 303 303 303
245 253 263 273 272 272 277 286 289 287 296 293 292 299 281 277 296 292 294 293 295 296 299 300 304 304 305 306 305 304 305 306 306 307 307 306 305 305 305 304 302 299 300
260 262 263 279 274 273 271 282 286 290 293 287 290 295 285 284 289 284 283 288 290 292 294 296 298 299 302 303 301 301 303 304 304 306 306 305 305 305 307 308 306 303 300
264 260 265 265 276 274 284 281 285 285 288 288 286 281 278 280 277 271 278 282 285 287 291 294 295 296 297 300 298 299 302 302 302 304 305 305 306 308 308 308 307 307 306
266 260 253 255 266 286 279 280 279 280 284 287 288 285 283 277 271 271 274 276 279 282 288 286 289 291 292 295 297 298 299 300 300 304 306 307 306 306 308 308 307 307 309
267 262 254 254 255 262 271 275 276 280 281 280 277 277 278 270 267 267 269 266 268 273 278 286 287 287 289 292 295 297 300 298 301 303 304 304 304 305 307 309 310 310 308
268 258 250 247 251 259 268 275 280 280 279 277 276 274 273 272 270 264 259 263 267 275 289 289 292 282 283 287 291 294 297 297 299 300 303 304 305 306 307 308 309 310 311
265 265 267 268 271 270 272 277 277 278 279 278 277 278 278 279 273 273 272 272 270 275 277 287 295 284 282 285 287 290 294 296 297 299 302 303 304 304 304 307 309 311 313
261 261 266 270 273 276 278 279 280 281 283 283 287 290 284 290 290 291 282 277 278 279 285 284 292 283 278 282 284 287 291 294 295 296 299 300 301 301 303 305 307 309 312
273 275 271 268 270 273 277 281 280 281 281 286 291 295 295 296 288 280 277 280 286 289 290 291 288 282 276 278 281 285 289 292 293 295 297 298 299 300 301 303 306 307 309
278 282 284 288 288 284 282 279 282 279 280 286 291 291 283 281 274 269 278 281 285 287 287 291 289 284 279 278 279 285 288 289 292 294 297 298 299 300 301 302 305 306 307
297 296 295 294 290 284 280 275 276 283 285 283 286 295 287 270 271 272 278 287 289 286 287 291 289 284 283 278 280 285 288 290 292 295 297 299 300 301 302 304 307 307 308
298 300 301 305 302 292 286 280 276 278 278 284 289 279 276 278 287 269 277 274 290 287 291 291 285 282 280 280 283 286 288 290 293 296 299 301 300 301 302 304 305 306 308
309 314 318 319 310 303 302 295 292 288 283 284 288 300 293 304 289 287 295 280 279 287 294 292 281 279 281 283 286 288 289 291 294 298 300 299 299 301 303 305 305 306 307
320 322 322 318 315 308 305 299 295 292 290 289 289 285 285 287 285 290 290 281 287 292 288 277 275 279 283 286 289 289 290 292 295 298 298 298 299 300 303 304 304 306 308
321 321 319 317 313 310 305 300 297 293 290 289 288 287 293 291 284 283 277 283 287 287 278 273 277 283 287 290 289 290 291 294 296 297 298 298 299 301 302 303 305 307 309
321 320 318 315 310 309 305 301 298 295 288 284 286 285 287 284 292 296 296 293 288 281 275 276 283 288 289 289 290 292 295 296 296 297 298 299 300 301 301 303 306 308 308
317 316 314 310 311 310 309 305 302 295 289 284 283 283 295 283 289 293 292 290 282 275 278 285 290 289 290 292 295 297 297 298 299 299 300 301 300 301 303 305 307 306 307
314 312 310 311 310 309 312 311 305 298 292 287 285 285 286 284 290 290 286 280 278 284 289 290 290 292 295 298 298 299 299 300 300 300 301 302 303 304 304 304 305 307 307
317 317 315 315 316 318 316 312 307 302 297 291 287 286 286 288 287 285 281 283 288 290 289 294 297 299 299 299 300 300 301 301 301 302 304 304 304 305 305 306 307 307 307
318 317 318 321 325 325 320 313 308 307 303 299 295 290 288 288 287 286 287 291 291 295 300 301 300 299 299 301 303 303 304 304 305 306 305 306 306 306 307 307 307 307 308
319 319 321 323 325 327 325 320 317 311 306 303 300 297 293 290 290 294 297 299 302 303 300 299 300 301 303 305 305 305 305 306 306 306 306 306 306 306 307 308 308 308 309
323 323 322 322 323 326 326 322 320 316 314 311 306 300 300 302 302 304 305 306 304 301 302 304 304 305 306 305 305 306 307 307 307 306 306 306 307 308 307 307 307 308 308